Location: Rounton
(54.4000°N, 1.3500°W)
Time: 06:12:42
(UTC+01:00)

deb Agena D - Pass Details

Date: 16 June 2023
Orbit: 996 x 1023 km, 100.1° (Epoch: 29 September)

Event Time Altitude Azimuth Distance (km) Brightness Sun altitude
Exits shadow 23:28:36 - 117° (ESE) 3,490 ? -9.5°
Reaches altitude 10° 23:30:44 10° 109° (ESE) 2,771 ? -9.6°
Maximum altitude 23:35:57 29° 51° (NE) 1,732 ? -9.8°
Drops below altitude 10° 23:41:10 10° 354° (N) 2,778 ? -10.1°
Sets 23:43:57 0° 344° (NNW) 3,731 ? -10.2°
